Miscellaneous Local Product
Issued by NWS North Platte, NE

Home | Current Version | Previous Version | Graphics & Text | Print | Product List | Glossary On
Versions: 1 2 3 4 5 6 7 8 9 10 11 12 13 14 15 16 17 18 19 20 21 22 23 24 25 26 27 28 29 30 31 32 33 34 35 36 37 38 39 40 41 42 43 44 45 46 47 48 49 50
000
AXUS43 KLBF 262310
MISLBF


WESTERN AND NORTH CENTRAL NEBRASKA HOURLY WEATHER ROUNDUP
NATIONAL WEATHER SERVICE NORTH PLATTE NE
600 PM CDT THU MAY 26 2016

NOTE: "FAIR" INDICATES FEW OR NO CLOUDS BELOW 12,000 FEET WITH NO
SIGNIFICANT WEATHER AND/OR OBSTRUCTIONS TO VISIBILITY.

NOTE: STATIONS NOT REPORTING VARIABLES SUCH AS SKY/WEATHER OR
PRESSURE ARE PROVIDED BY RAWS AND APRS NETWORKS AND ARE NOT UNDER
NATIONAL WEATHER SERVICE QUALITY CONTROL.

...OBSERVATIONS IN AND NEAR THE EASTERN PANHANDLE OF NEBRASKA...

CITY           SKY/WX    TMP DP  RH WIND       PRES   REMARKS
PINE RIDGE     CLOUDY    67  43  41 W8        29.83S
CHADRON        CLOUDY    63  50  62 SW5       29.83F
ALLIANCE       CLOUDY    63  41  44 NW21G33   29.85S
SIDNEY         CLOUDY    61  42  49 NW18G29   29.86S
CRESCENT LAKE    N/A     67  33  28 NW21G29     N/A
BIG SPRINGS      N/A     75  45  33 N8          N/A
$$

...OBSERVATIONS IN NORTHERN NEBRASKA AND FAR SOUTHERN SOUTH DAKOTA...

CITY           SKY/WX    TMP DP  RH WIND       PRES   REMARKS
WINNER         FAIR      79  49  34 CALM      29.77R
VALENTINE      MOSUNNY   80  46  30 N5        29.77R
THEDFORD       SUNNY     77  45  32 CALM      29.78F
AINSWORTH      SUNNY     75  49  39 SE3       29.77F
O`NEILL        CLOUDY    75  57  52 E8        29.76F
ORD            CLOUDY    74  49  41 NE8       29.75F
BROKEN BOW     CLOUDY    76  44  32 E18       29.75F
BUTTE            N/A     72  54  53 NE6         N/A
CHAMBERS         N/A     78  52  40 E3          N/A
EWING            N/A     75  51  42 E3G13       N/A
$$

...OBSERVATIONS IN SOUTHWEST NEBRASKA AND FAR NORTHEAST COLORADO...

CITY           SKY/WX    TMP DP  RH WIND       PRES   REMARKS
IMPERIAL       CLOUDY    72  43  35 E14G25    29.77R
OGALLALA       CLOUDY    70  46  42 N9        29.78S
NORTH PLATTE   MOSUNNY   75  46  35 E14       29.75F
MCCOOK         PTSUNNY   74  57  55 E24       29.69F THUNDER
LEXINGTON      CLOUDY    72  56  56 NE16      29.74S
PAXTON           N/A     78  46  32 E9          N/A
STAPLETON        N/A     76  49  38 E3          N/A
GOTHENBURG       N/A     77  37  24 NE9         N/A
CALLAWAY         N/A     76  51  40 E12         N/A
$$

...OBSERVATIONS IN CENTRAL LINCOLN COUNTY AREA...

CITY           SKY/WX    TMP DP  RH WIND       PRES   REMARKS
N.P. AIRPORT   MOSUNNY   75  46  35 E14       29.75F
N.P. DOWNTOWN    N/A     77  46  33 E9          N/A
N.P. SOUTHEAST   N/A     79  47  31 CALM        N/A
N.P. HILLCREST   N/A     76  46  33 E13G20      N/A
$$

...SOME OBSERVATIONS FROM AROUND THE REGION...

CITY           SKY/WX    TMP DP  RH WIND       PRES   REMARKS
DENVER         LGT RAIN  47  43  86 NE26      29.90F
LARAMIE        CLOUDY    45  38  76 SE15      29.96F
CHEYENNE       CLOUDY    48  42  80 CALM      29.97F
SCOTTSBLUFF    CLOUDY    66  39  37 W12G17    29.86F
RAPID CITY     MOSUNNY   67  47  48 E5        29.83F
BISMARCK       MOSUNNY   71  49  45 NW15G23   29.75F
PIERRE         MOSUNNY   74  54  49 NW14      29.72F
SIOUX FALLS    PTSUNNY   74  56  53 E5        29.79S
OMAHA          TSTM      67  59  75 SE39G49   29.82F
GRAND ISLAND   LGT RAIN  71  57  61 E22       29.76F
KANSAS CITY    TSTM      62  60  93 NE23G39   29.88F
WICHITA        PTSUNNY   84  71  65 S18G26    29.66F
OKLAHOMA CITY  MOSUNNY   83  64  52 S26G36    29.72F
DALLAS         CLOUDY    78  66  66 SE24G32   29.77F
AMARILLO       SUNNY     86  28  12 SW23G38   29.71F
DODGE CITY     TSTM      67  65  93 E25       29.58F FOG
HAYS           PTSUNNY   64  55  72 S12       29.62F
$$




USA.gov is the U.S. government's official web portal to all federal, state and local government web resources and services.